[[{"header":{"parameterUnit":"m.s-1","parameterCategory":1,"la1":30.2991,"la2":30.254,"lo1":-89.0895,"lo2":-89.0444,"dy":0.0017,"dx":0.0017,"nx":28,"ny":28,"refTime":"2025-08-09T21:00:00:Z","depth":0,"parameterNumber":2,"parameterNumberName":"U-component_of_WINDS"},"data":[0,0,0,0,0,0,0,0,0,0,0,0,0,0,0,0,0,0,0,0,0,0,0,0,0,0,0,0,0,0,0,0,0,0,0,0,0,0,0,0,0,0,0,0,0,0,0,0,0,0,0,0,0,0,0,0,0,0,-2.5224,-2.5223,0,-2.5179,-2.5178,-2.5178,-2.5,-2.4996,-2.4991,-2.4988,-2.4948,-2.4951,-2.4953,0,0,0,0,0,0,0,0,0,0,0,0,0,-2.5161,-2.5163,-2.5224,-2.5223,-2.5223,-2.5179,-2.5178,-2.5178,-2.5,-2.4995,-2.499,-2.4986,-2.4947,-2.495,-2.4954,0,0,0,0,0,0,0,0,0,0,0,0,0,-2.516,-2.5164,-2.5224,-2.5129,-2.512,-2.5179,-2.5178,-2.5178,-2.5001,-2.4995,-2.4989,-2.4983,-2.4946,-2.495,-2.4954,-2.5104,0,0,-2.4967,-2.4969,0,0,0,0,0,0,0,0,-2.516,-2.5162,-2.5143,-2.5135,-2.5125,-2.5088,-2.5142,-2.5153,-2.5003,-2.5047,-2.4987,-2.498,-2.5,-2.4999,-2.5005,-2.5102,-2.51,-2.4967,-2.497,-2.4972,-2.4973,0,0,0,0,0,0,0,-2.5161,-2.5163,-2.5206,-2.5143,-2.5132,-2.509,-2.5083,-2.5143,-2.5059,-2.5042,-2.5029,-2.5026,-2.4994,-2.5001,-2.5003,-2.51,-2.4967,-2.4971,-2.4973,-2.4975,-2.5319,-2.5325,0,0,0,0,0,0,-2.5173,-2.5165,-2.5207,-2.5205,-2.5128,-2.5096,-2.5088,-2.5107,-2.5058,-2.5044,-2.5031,-2.5018,-2.4997,-2.4998,-2.5001,-2.5174,-2.4972,-2.4976,-2.4978,-2.5312,-2.532,-2.5328,0,0,0,0,0,0,-2.5173,-2.5179,-2.5209,-2.5181,-2.5182,-2.5104,-2.5126,-2.5109,-2.5116,-2.5049,-2.5034,-2.5054,-2.4992,-2.4995,-2.5079,-2.517,-2.4977,-2.4981,-2.5305,-2.5315,-2.5324,-2.5522,0,0,0,0,0,0,-2.5172,-2.518,-2.5234,-2.5184,-2.5184,-2.5288,-2.5131,-2.5113,-2.5123,-2.5105,-2.5066,-2.5054,-2.4988,-2.5074,-2.5084,-2.5172,-2.4984,-2.5296,-2.5309,-2.5321,-2.5507,-2.5537,-2.5563,0,0,0,0,0,-2.517,-2.5293,-2.5238,-2.5244,-2.525,-2.5293,-2.5294,-2.5213,-2.5131,-2.5186,-2.5144,-2.5055,-2.5158,-2.5084,-2.5093,-2.5185,-2.529,-2.5305,-2.532,-2.5494,-2.5531,-2.5563,0,0,0,0,0,0,-2.5359,-2.5285,-2.5223,-2.5333,-2.5321,-2.5263,-2.5331,-2.5255,-2.5267,-2.525,-2.5151,-2.5144,-2.5244,-2.5222,-2.5141,-2.5328,-2.5209,-2.5227,-2.5339,-2.5373,-2.5401,-2.5406,-2.4988,0,0,0,0,0,-2.5412,-2.5452,-2.5385,-2.5489,-2.5485,-2.541,-2.5425,-2.5364,-2.5348,-2.5343,-2.5306,-2.5296,-2.5326,-2.5348,-2.5371,-2.5502,-2.5492,-2.5569,-2.5598,-2.5621,-2.5638,-2.5708,-2.5742,-2.5376,-2.5376,-2.5376,0,0,-2.5525,-2.5489,-2.5521,-2.5526,-2.5509,-2.5554,-2.5407,-2.546,-2.5493,-2.5351,-2.5429,-2.5402,-2.5384,-2.5493,-2.5539,-2.5478,-2.5737,-2.564,-2.5659,-2.5664,-2.5727,-2.5762,-2.5793,-2.5387,-2.5385,-2.5383,0,0,-2.5754,-2.573,-2.5814,-2.58,-2.5776,-2.5724,-2.5745,-2.5699,-2.5675,-2.5751,-2.5646,-2.5685,-2.5738,-2.573,-2.5733,-2.5959,-2.5879,-2.597,-2.6118,-2.6187,-2.6216,-2.6241,-2.6324,-2.6355,-2.5986,-2.5987,-2.5987,0,-2.5898,-2.5959,-2.5867,-2.5928,-2.5934,-2.5805,-2.5891,-2.5883,-2.5869,-2.5878,-2.5808,-2.5873,-2.5852,-2.5958,-2.6013,-2.6019,-2.6042,-2.5975,-2.6219,-2.6243,-2.6265,-2.6344,-2.6375,-2.5998,-2.5997,-2.5996,-2.5995,0,-2.6138,-2.6183,-2.6254,-2.6242,-2.6256,-2.6329,-2.625,-2.6276,-2.6214,-2.617,-2.6251,-2.622,-2.6237,-2.6257,-2.6197,-2.6355,-2.6318,-2.6236,-2.6115,-2.6313,-2.6385,-2.6414,-2.6014,-2.601,-2.6007,-2.6004,0,0,-2.6486,-2.6422,-2.645,-2.6444,-2.6407,-2.6441,-2.6509,-2.6523,-2.6548,-2.6543,-2.6599,-2.6647,-2.657,-2.6574,-2.6512,-2.6572,-2.6757,-2.6482,-2.648,-2.6537,-2.6932,-2.6997,-2.7033,-2.6702,-2.6707,-2.6711,-2.6935,0,-2.6706,-2.6817,-2.6736,-2.6862,-2.6903,-2.6782,-2.6841,-2.6827,-2.6789,-2.682,-2.6777,-2.6814,-2.6708,-2.671,-2.6764,-2.6723,-2.6835,-2.6705,-2.6757,-2.676,-2.6768,-2.707,-2.7138,-2.735,-2.6962,-2.6967,-2.697,0,-2.6977,-2.6983,-2.7113,-2.7069,-2.7083,-2.7138,-2.7145,-2.7175,-2.7157,-2.7125,-2.7129,-2.7052,-2.7118,-2.6997,-2.7088,-2.7002,-2.7018,-2.7001,-2.7007,-2.7011,-2.6879,-2.7085,-2.7415,-2.7449,-2.7013,-2.701,-2.7007,0,-2.7222,-2.7261,-2.7344,-2.7342,-2.7292,-2.7334,-2.7316,-2.7291,-2.7305,-2.7312,-2.732,-2.7336,-2.7345,-2.7359,-2.7289,-2.7207,-2.7391,-2.7263,-2.7368,-2.7371,-2.7415,-2.7413,-2.7755,-2.7421,-2.7421,-2.742,-2.7419,0,-2.7477,-2.7562,-2.7453,-2.7505,-2.7597,-2.7504,-2.7598,-2.7567,-2.7547,-2.7592,-2.7487,-2.7532,-2.7435,-2.7471,-2.7416,-2.7502,-2.7506,-2.7484,-2.7469,-2.7495,-2.7498,-2.7506,-2.7491,-2.7428,-2.7426,-2.7425,-2.7423,0,-2.7766,-2.7696,-2.7779,-2.7725,-2.7713,-2.7784,-2.7739,-2.7785,-2.7739,-2.7798,-2.7806,-2.7735,-2.7772,-2.7702,-2.773,-2.7693,-2.7814,-2.7774,-2.782,-2.7809,-2.7919,-2.7911,-2.828,-2.8325,-2.7961,-2.7964,-2.7967,0,-2.7935,-2.7997,-2.7949,-2.7971,-2.7958,-2.7995,-2.8008,-2.7919,-2.7938,-2.7922,-2.7972,-2.7999,-2.8017,-2.8082,-2.8034,-2.8055,-2.8017,-2.8145,-2.802,-2.8045,-2.8023,-2.8021,-2.8028,-2.8172,-2.8177,-2.818,-2.8183,0,-2.8243,-2.8205,-2.8227,-2.8238,-2.8257,-2.8262,-2.8259,-2.8283,-2.8189,-2.8216,-2.8251,-2.8265,-2.8292,-2.8323,-2.8332,-2.8315,-2.8236,-2.8223,-2.8248,-2.8277,-2.8302,-2.8293,-2.7893,-2.8215,-2.8212,-2.821,-2.8208,-2.8207,-2.8478,-2.8529,-2.8503,-2.8532,-2.852,-2.852,-2.8562,-2.852,-2.8548,-2.8562,-2.8508,-2.8557,-2.8539,-2.8543,-2.8535,-2.8573,-2.8517,-2.8554,-2.8563,-2.8575,-2.8593,-2.8294,-2.8575,-2.8574,-2.8573,-2.8572,-2.8571,0,-2.8783,-2.876,-2.8787,-2.8787,-2.881,-2.8729,-2.8722,-2.8748,-2.8791,-2.878,-2.8799,-2.8841,-2.8869,-2.8824,-2.8845,-2.8885,-2.8849,-2.8894,-2.8891,-2.8889,-2.8642,-2.8618,-2.8922,-2.8922,-2.8922,-2.8922,-2.8922,-2.8922,-2.8944,-2.9026,-2.8986,-2.9061,-2.9038,-2.9083,-2.9086,-2.9087,-2.9077,-2.9128,-2.9151,-2.912,-2.9095,-2.9114,-2.9138,-2.9124,-2.9138,-2.9197,-2.9171,-2.8941,-2.8906,-2.8874,-2.8851,-2.92,-2.92,-2.9415,-2.9417,-2.9418]},{"header":{"parameterUnit":"m.s-1","parameterCategory":1,"la1":30.2991,"la2":30.254,"lo1":-89.0895,"lo2":-89.0444,"dy":0.0017,"dx":0.0017,"nx":28,"ny":28,"refTime":"2025-08-09T21:00:00:Z","depth":0,"parameterNumber":3,"parameterNumberName":"V-component_of_WINDS"},"data":[0,0,0,0,0,0,0,0,0,0,0,0,0,0,0,0,0,0,0,0,0,0,0,0,0,0,0,0,0,0,0,0,0,0,0,0,0,0,0,0,0,0,0,0,0,0,0,0,0,0,0,0,0,0,0,0,0,0,-2.083,-2.0831,0,-2.095,-2.0951,-2.0952,-2.1005,-2.1005,-2.1005,-2.1005,-2.1125,-2.1128,-2.1132,0,0,0,0,0,0,0,0,0,0,0,0,0,-2.0645,-2.0648,-2.083,-2.0831,-2.0833,-2.0949,-2.0951,-2.0953,-2.1005,-2.1005,-2.1005,-2.1005,-2.1124,-2.1128,-2.1132,0,0,0,0,0,0,0,0,0,0,0,0,0,-2.0741,-2.0649,-2.0829,-2.0873,-2.0878,-2.0949,-2.0951,-2.0953,-2.1005,-2.1005,-2.1005,-2.1005,-2.1123,-2.1128,-2.1133,-2.1168,0,0,-2.1148,-2.115,0,0,0,0,0,0,0,0,-2.0736,-2.0748,-2.0865,-2.087,-2.0876,-2.0962,-2.093,-2.1025,-2.1005,-2.0957,-2.1005,-2.1005,-2.1071,-2.108,-2.1103,-2.1174,-2.1179,-2.1148,-2.1151,-2.1154,-2.1155,0,0,0,0,0,0,0,-2.0729,-2.0743,-2.0877,-2.0867,-2.0874,-2.0886,-2.09,-2.0949,-2.1014,-2.0961,-2.0965,-2.0979,-2.1074,-2.1098,-2.1106,-2.1181,-2.1148,-2.1153,-2.1156,-2.1158,-2.1289,-2.1289,0,0,0,0,0,0,-2.0715,-2.0737,-2.0873,-2.0881,-2.0804,-2.089,-2.0905,-2.0935,-2.1013,-2.1025,-2.0979,-2.0981,-2.109,-2.1101,-2.1111,-2.1159,-2.1154,-2.1158,-2.1161,-2.1288,-2.1289,-2.1289,0,0,0,0,0,0,-2.0711,-2.0727,-2.0869,-2.081,-2.0829,-2.0893,-2.0927,-2.0937,-2.0962,-2.1027,-2.1039,-2.0992,-2.109,-2.1104,-2.1154,-2.1164,-2.1161,-2.1165,-2.1288,-2.1289,-2.1289,-2.1254,0,0,0,0,0,0,-2.0706,-2.0725,-2.074,-2.081,-2.0832,-2.091,-2.0927,-2.094,-2.0971,-2.0974,-2.1042,-2.1053,-2.1091,-2.1146,-2.1159,-2.1171,-2.1169,-2.1287,-2.1288,-2.1289,-2.1255,-2.1254,-2.1253,0,0,0,0,0,-2.0699,-2.0724,-2.074,-2.0756,-2.0852,-2.091,-2.0923,-2.0967,-2.0971,-2.0986,-2.1028,-2.1051,-2.1161,-2.1151,-2.1166,-2.1179,-2.1287,-2.1288,-2.1289,-2.1256,-2.1254,-2.1253,0,0,0,0,0,0,-2.0652,-2.0734,-2.0753,-2.0802,-2.0849,-2.0919,-2.0939,-2.0963,-2.101,-2.1011,-2.1063,-2.1077,-2.1124,-2.1156,-2.1144,-2.1219,-2.1226,-2.123,-2.1195,-2.1195,-2.1194,-2.1184,-2.1173,0,0,0,0,0,-2.0648,-2.0689,-2.0759,-2.0795,-2.0818,-2.0875,-2.0902,-2.0932,-2.0982,-2.1002,-2.1048,-2.1095,-2.1141,-2.117,-2.1215,-2.126,-2.1276,-2.1277,-2.1276,-2.1274,-2.1277,-2.1305,-2.1306,-2.1293,-2.1293,-2.1293,0,0,-2.0639,-2.0689,-2.0711,-2.0787,-2.0827,-2.0869,-2.0891,-2.0934,-2.0965,-2.1008,-2.1059,-2.1094,-2.1151,-2.1199,-2.1223,-2.1228,-2.1285,-2.1276,-2.1274,-2.1278,-2.1306,-2.1307,-2.1308,-2.1294,-2.1293,-2.1293,0,0,-2.0643,-2.0685,-2.0721,-2.0761,-2.0822,-2.0859,-2.0868,-2.0935,-2.0961,-2.1013,-2.1047,-2.1084,-2.1161,-2.1201,-2.1231,-2.1252,-2.1275,-2.1266,-2.126,-2.1286,-2.1287,-2.1288,-2.1296,-2.1299,-2.1268,-2.1268,-2.1268,0,-2.0624,-2.0689,-2.0736,-2.0778,-2.081,-2.0852,-2.0889,-2.0925,-2.0997,-2.1018,-2.1024,-2.1122,-2.1163,-2.1222,-2.1227,-2.125,-2.1262,-2.1258,-2.1283,-2.1285,-2.1287,-2.1295,-2.1298,-2.1267,-2.1267,-2.1267,-2.1267,0,-2.0662,-2.0707,-2.0728,-2.0798,-2.0833,-2.0871,-2.0924,-2.0954,-2.0981,-2.1018,-2.1071,-2.1122,-2.1179,-2.1195,-2.1221,-2.1258,-2.126,-2.1273,-2.1281,-2.1285,-2.1294,-2.1298,-2.1264,-2.1265,-2.1265,-2.1266,0,0,-2.064,-2.0737,-2.0744,-2.0776,-2.0847,-2.0882,-2.0923,-2.098,-2.1004,-2.1053,-2.1089,-2.1154,-2.1167,-2.1201,-2.1233,-2.1255,-2.127,-2.1267,-2.1269,-2.1266,-2.1315,-2.1304,-2.1307,-2.1286,-2.1287,-2.1288,-2.131,0,-2.0655,-2.0731,-2.0775,-2.0832,-2.0874,-2.0915,-2.0951,-2.0998,-2.1034,-2.1075,-2.1115,-2.116,-2.1175,-2.1196,-2.122,-2.1263,-2.1281,-2.1262,-2.132,-2.1321,-2.1304,-2.1311,-2.13,-2.1318,-2.1314,-2.1314,-2.1315,0,-2.0682,-2.0731,-2.0792,-2.086,-2.0879,-2.091,-2.0966,-2.1005,-2.1059,-2.1084,-2.1123,-2.1155,-2.12,-2.1205,-2.1268,-2.1254,-2.128,-2.1305,-2.1307,-2.1314,-2.1318,-2.1318,-2.1325,-2.1328,-2.132,-2.132,-2.1319,0,-2.066,-2.0741,-2.0789,-2.0816,-2.0895,-2.0916,-2.095,-2.1005,-2.1036,-2.1085,-2.1107,-2.116,-2.1189,-2.1229,-2.1275,-2.1274,-2.1333,-2.1342,-2.1355,-2.1354,-2.1365,-2.1364,-2.1376,-2.1382,-2.1382,-2.1382,-2.1382,0,-2.0672,-2.0708,-2.078,-2.081,-2.0852,-2.0902,-2.0942,-2.098,-2.1028,-2.1066,-2.1105,-2.1139,-2.1197,-2.1238,-2.1274,-2.1321,-2.1333,-2.1355,-2.1364,-2.1351,-2.1349,-2.1369,-2.1369,-2.1383,-2.1383,-2.1382,-2.1382,0,-2.0654,-2.0704,-2.0759,-2.083,-2.0849,-2.0877,-2.0938,-2.0968,-2.1007,-2.1053,-2.1067,-2.1128,-2.1179,-2.1228,-2.1296,-2.132,-2.1367,-2.1379,-2.1349,-2.1354,-2.1364,-2.1363,-2.1391,-2.1397,-2.1398,-2.1398,-2.1398,0,-2.0658,-2.0688,-2.0762,-2.079,-2.0824,-2.0868,-2.0901,-2.0953,-2.0985,-2.105,-2.1073,-2.1127,-2.1173,-2.1252,-2.1302,-2.1355,-2.1368,-2.1374,-2.1376,-2.1363,-2.1369,-2.1366,-2.137,-2.1373,-2.1373,-2.1372,-2.1372,0,-2.0661,-2.0684,-2.073,-2.0786,-2.0824,-2.087,-2.0917,-2.0937,-2.0998,-2.1032,-2.1085,-2.1121,-2.1191,-2.1245,-2.1303,-2.1338,-2.1365,-2.1371,-2.1377,-2.1365,-2.1346,-2.1357,-2.1345,-2.137,-2.1371,-2.1371,-2.1371,-2.1371,-2.0655,-2.0683,-2.074,-2.079,-2.0831,-2.0875,-2.0907,-2.095,-2.0995,-2.1057,-2.1084,-2.1138,-2.1193,-2.1275,-2.131,-2.1352,-2.1359,-2.1367,-2.1369,-2.1371,-2.1368,-2.134,-2.1363,-2.1363,-2.1363,-2.1363,-2.1364,0,-2.066,-2.0699,-2.0744,-2.081,-2.0849,-2.0872,-2.0926,-2.0957,-2.1004,-2.1053,-2.1098,-2.116,-2.1212,-2.1266,-2.1322,-2.1346,-2.136,-2.1359,-2.1357,-2.1365,-2.1359,-2.1348,-2.1346,-2.1346,-2.1346,-2.1346,-2.1346,-2.1346,-2.0667,-2.0716,-2.0746,-2.0816,-2.0855,-2.0908,-2.0937,-2.0977,-2.1017,-2.1084,-2.1128,-2.1163,-2.1215,-2.1275,-2.1324,-2.1339,-2.1358,-2.1353,-2.1371,-2.1364,-2.1365,-2.1366,-2.1357,-2.1357,-2.1357,-2.1374,-2.1374,-2.1374]}]]